Location: Taipo
(41.0000°S, 175.9500°E)
Time: 03:55:44
(UTC+00:00)

Cosmos 2056 Rocket - Pass Details

Date: 18 April 2024
Orbit: 739 x 799 km, 74.0° (Epoch: 22 May)

Event Time Altitude Azimuth Distance (km) Brightness Sun altitude
Rises 16:57:45 0° 352° (N) 3,279 6.6 -21.9°
Reaches altitude 10° 17:00:10 10° 355° (N) 2,351 5.9 -21.5°
Maximum altitude 17:05:26 63° 74° (ENE) 878 4.0 -20.5°
Drops below altitude 10° 17:10:42 10° 154° (SSE) 2,343 6.4 -19.5°
Sets 17:13:06 0° 157° (SSE) 3,267 7.1 -19.0°
